Humidity-temperature Sensor

Selected Measurement Type: Relative Humidity

 
Relative Humidity [%]     6 entries per hour
Showing data from 5/28/2018 (00:00:00 Z) to 5/27/2018 (00:01:00 Z)
Previous Next [ Day | 3-Days | 7-Days ]
First Last
Prev [ Day | 3-Days | 7-Days ] Next
First Last

Start Time:     :
End Time:     :     
Time (in GMT) :00 :50 :40 :30 :20 :10
Previous Next [ Day | 3-Days | 7-Days ]
First Last
Prev [ Day | 3-Days | 7-Days ] Next
First Last


123 => good data
MM => data is determined as missing
-- => data not received/configured
Back to Top Back to Top
5/28/2018 00:00 to 23:10 84.18 88.27 88.20 86.44 87.00 87.38
5/27/2018 23:00 to 22:10 88.43 90.38 89.65 89.36 88.39 88.39
5/27/2018 22:00 to 21:10 88.29 87.15 87.09 87.58 88.18 89.61
5/27/2018 21:00 to 20:10 90.34 90.79 90.71 87.38 87.81 85.80
5/27/2018 20:00 to 19:10 85.59 82.61 82.26 83.92 88.02 87.17
5/27/2018 19:00 to 18:10 86.46 86.67 87.02 87.27 88.51 88.35
5/27/2018 18:00 to 17:10 89.55 90.34 89.94 89.36 89.55 88.49
5/27/2018 17:00 to 16:10 87.69 90.36 90.90 91.89 90.42 86.82
5/27/2018 16:00 to 15:10 85.39 85.82 85.12 85.24 84.41 85.14
5/27/2018 15:00 to 14:10 86.98 86.13 84.31 83.11 83.23 82.13
5/27/2018 14:00 to 13:10 80.89 81.35 80.81 82.63 82.44 80.37
5/27/2018 13:00 to 12:10 81.14 80.37 79.38 79.88 79.65 80.58
5/27/2018 12:00 to 11:10 80.41 79.23 79.48 78.55 80.29 79.42
5/27/2018 11:00 to 10:10 77.66 77.60 80.70 79.57 80.44 82.63
5/27/2018 10:00 to 9:10 80.79 77.54 77.64 76.23 77.80 77.43
5/27/2018 09:00 to 8:10 77.06 76.44 77.51 77.29 79.94 81.76
5/27/2018 08:00 to 7:10 80.70 79.32 79.75 78.82 79.09 79.01
5/27/2018 07:00 to 6:10 79.30 79.13 79.46 81.82 81.10 81.93
5/27/2018 06:00 to 5:10 82.34 82.01 78.84 77.60 78.05 77.78
5/27/2018 05:00 to 4:10 78.07 79.07 77.91 78.67 77.62 80.33
5/27/2018 04:00 to 3:10 80.97 85.74 87.29 86.84 86.01 85.45
5/27/2018 03:00 to 2:10 85.63 84.62 83.05 85.66 84.27 83.34
5/27/2018 02:00 to 1:10 85.18 89.07 87.52 81.72 81.12 83.46
5/27/2018 01:00 to 0:10 83.69 80.85 80.35 80.56 83.52 81.99